McConnell AFB, KS

12:07 AM CST on February 25, 2018 (GMT -0600)
McConnell Air Force Base

Weather History for KIAB - December, 2012

Change the Weather History Date:

Tuesday, December 11, 2012

  Actual Average Record
Temperature  
Mean Temperature 32 °F -  
Max Temperature 46 °F 45 °F 66 °F (2017)
Min Temperature 17 °F 27 °F 5 °F (2000)
Degree Days  
Heating Degree Days 34    
Moisture  
Dew Point 9 °F    
Average Humidity 42    
Maximum Humidity 59    
Minimum Humidity 26    
Precipitation  
Precipitation 0.00 in - - ()
Sea Level Pressure  
Sea Level Pressure 30.12 in    
Wind  
Wind Speed 7 mph (South)    
Max Wind Speed 12 mph    
Max Gust Speed -    
Visibility 9 miles    
Events      
Averages and records for this station are not official NWS values.
T = Trace of Precipitation, MM = Missing Value Source: NWS Daily Summary

Daily Weather History Graph

Daily Weather History Graph

Search for Another Location

Airport or City:

Trip Planner

Search our weather history database for the weather conditions in past years. The results will help you decide how hot, cold, wet, or windy it might be!

Date:

Astronomy

Dec. 11, 2012 Rise Set
Actual Time 7:34 AM CST 5:10 PM CST
Civil Twilight 7:05 AM CST 5:40 PM CST
Nautical Twilight 6:32 AM CST 6:12 PM CST
Astronomical Twilight 6:00 AM CST 6:44 PM CST
Moon 5:31 AM CST (12/11) 3:50 PM CST (12/11)
Length of Visible Light 10h 35m
Length of Day
9h 36m
Waning Crescent, 4% of the Moon is Illuminated
Dec 11
Waning Crescent
Dec 13
New
Dec 19
First Quarter
Dec 28
Full
Jan 4
Last Quarter

Hourly Weather History & Observations

Time (CST) Temp. Windchill Dew Point Humidity Pressure Visibility Wind Dir Wind Speed Gust Speed Precip Events Conditions
12:55 AM 23.5 °F 12.4 °F 2.7 °F 41% 30.07 in 10.0 mi SSW 11.5 mph - N/A   Clear
1:55 AM 22.6 °F 11.3 °F 2.7 °F 42% 30.06 in 10.0 mi South 11.5 mph - N/A   Clear
2:55 AM 21.7 °F 10.8 °F 3.0 °F 45% 30.07 in 10.0 mi South 10.4 mph - N/A   Clear
3:55 AM 22.1 °F 12.0 °F 3.9 °F 46% 30.07 in 10.0 mi SSW 9.2 mph - N/A   Clear
4:55 AM 19.0 °F 11.1 °F 4.6 °F 54% 30.08 in 10.0 mi SSW 5.8 mph - N/A   Clear
5:55 AM 17.4 °F 9.1 °F 5.2 °F 59% 30.09 in 10.0 mi SSW 5.8 mph - N/A   Clear
6:55 AM 18.7 °F - 5.2 °F 56% 30.10 in 10.0 mi Calm Calm - N/A   Clear
7:07 AM 17.6 °F - 5.0 °F 58% 30.11 in 3.0 mi Calm Calm - N/A   Haze
7:10 AM 17.6 °F 12.3 °F 5.0 °F 58% 30.11 in 4.0 mi South 3.5 mph - N/A   Haze
7:55 AM 18.1 °F - 5.2 °F 57% 30.13 in 10.0 mi Calm Calm - N/A   Clear
8:55 AM 23.2 °F 15.0 °F 6.1 °F 48% 30.15 in 10.0 mi NW 6.9 mph - N/A   Clear
9:55 AM 31.3 °F 27.9 °F 4.1 °F 32% 30.16 in 10.0 mi NNE 3.5 mph - N/A   Clear
10:55 AM 37.0 °F 34.5 °F 5.5 °F 27% 30.16 in 10.0 mi NNE 3.5 mph - N/A   Clear
11:55 AM 41.7 °F 38.0 °F 9.1 °F 26% 30.15 in 10.0 mi ENE 5.8 mph - N/A   Clear
12:55 PM 45.0 °F 43.5 °F 12.6 °F 27% 30.12 in 10.0 mi Variable 3.5 mph - N/A   Clear
1:55 PM 46.8 °F - 13.3 °F 26% 30.11 in 10.0 mi NE 3.5 mph - N/A   Clear
2:55 PM 46.9 °F - 13.3 °F 26% 30.10 in 10.0 mi SSW 3.5 mph - N/A   Clear
3:55 PM 46.8 °F - 13.5 °F 26% 30.10 in 10.0 mi Calm Calm - N/A   Clear
4:55 PM 43.0 °F 39.5 °F 13.6 °F 30% 30.11 in 10.0 mi SSW 5.8 mph - N/A   Clear
5:55 PM 37.6 °F 33.1 °F 13.8 °F 38% 30.13 in 8.0 mi South 5.8 mph - N/A   Clear
6:55 PM 34.5 °F 28.6 °F 13.8 °F 43% 30.14 in 10.0 mi South 6.9 mph - N/A   Clear
7:55 PM 32.7 °F 26.4 °F 14.2 °F 47% 30.15 in 10.0 mi South 6.9 mph - N/A   Clear
8:55 PM 32.5 °F 29.3 °F 13.5 °F 45% 30.16 in 10.0 mi SSE 3.5 mph - N/A   Clear
9:55 PM 30.9 °F 25.2 °F 13.1 °F 48% 30.16 in 10.0 mi SSE 5.8 mph - N/A   Clear
10:55 PM 31.3 °F 24.7 °F 11.7 °F 44% 30.16 in 10.0 mi SSE 6.9 mph - N/A   Clear
11:55 PM 30.2 °F 21.3 °F 13.1 °F 49% 30.16 in 10.0 mi South 10.4 mph - N/A   Clear